Weather in Immenstadt

Germany     47°34′00″N   10°13′00″E
temp.,
°C
wind,
m/s
gust,
m/s
humid.,
%
clouds,
%
prec.,
mm/h
press.,
hPa
HPBL,
m
12 may, wed
wed1223:00+5ssw1297100 5.0 1013192
02:00+5sw2798100 9.4 1014891
05:00+3ssw2498100 6.9 1015494
08:00+3ssw1399100 11.0 1016611
11:00+3w1298100 1.8 1015567
14:00+4ne0097100 2.4 1014416
17:00+8nne227981 0.1 1011772
20:00+5nne2293100 0.4 1012217
13 may, thu
thu1323:00+3sse119699 0.1 101217
02:00+3ssw2193100 0.1 101119
05:00+3s2191100 0.0 101020
08:00+5sw1296100 0.6 1010346
11:00+8w128376 1.0 1009839
14:00+8wnw238792 2.6 1008889
17:00+6w239286 1.3 1009620
20:00+4w239679 1.7 1010230
14 may, fri
fri1423:00+3ssw2294100 0.1 101161
02:00+3s2398100 0.8 1011206
05:00+3s2398100 0.8 1011141
08:00+5ssw128689 0.9 1010143
11:00+8wnw226830 0.6 10091125
14:00+12wnw224585 1.3 10072037
17:00+11wnw235499 0.7 10071476
20:00+6w1290100 2.3 101060
15 may, sat
sat1523:00+5w2397100 1.4 1013204
02:00+3sse2299100 6.7 1015137
05:00+3s2398100 1.3 1014133
08:00+4sw1295100 1.4 1014240
11:00+7ene018591 0.3 1013564
14:00+10nw226894 1.4 10111341
17:00+10nw116057 0.9 10101216
20:00+7wnw1184100 1.3 101118
16 may, sun
sun1623:00+5wnw1199100 0.9 101390
02:00+5ssw1698100 2.8 1014838
05:00+4sse2498100 3.5 1014227
08:00+6sse129499 6.3 1014208
11:00+6sw2397100 2.2 1014238
14:00+8nw119062 2.6 1013213
17:00+8nw2394100 0.5 1012254
20:00+8se1192100 0.7 101046